"2009-07-11 00:00:00",1051491,3.807,60.64,4.184,0.253,22.05,110.3243,25.73,26.71,50.28,0,111.3,13.09,26.57,22.6
"2009-07-11 00:00:30",1051492,4.01,57.93,4.805,0.348,22.03,110.3261,25.73,26.72,50.14,0,111.3,13.09,26.57,19.9
"2009-07-11 00:01:00",1051493,4.62,57.92,2.84,0.242,21.94,110.3292,25.74,26.73,50.64,0,111.3,13.09,26.58,19.9
"2009-07-11 00:01:30",1051494,3.586,62.1,4.995,0.47,22.01,110.3339,25.75,26.73,50.65,0,111.3,13.09,26.59,24.1
"2009-07-11 00:02:00",1051495,3.179,64.9,4.366,0.252,22.08,110.3386,25.76,26.75,50.59,0,111.3,13.09,26.61,26.9
"2009-07-11 00:02:30",1051496,3.09,67.05,5.79,0.33,22.17,110.3499,25.79,26.76,50.49,0,111.3,13.09,26.64,29.1
"2009-07-11 00:03:00",1051497,3.698,47.48,3.06,0.196,22.01,110.3553,25.81,26.75,50.58,0,111.3,13.09,26.65,9.5
"2009-07-11 00:03:30",1051498,3.348,45.34,3.488,0.199,22,110.3564,25.81,26.78,50.78,0,111.3,13.09,26.65,7.3
"2009-07-11 00:04:00",1051499,4.603,46.72,5.731,0.421,22.02,110.3549,25.81,26.79,50.92,0,111.3,13.09,26.65,8.7
"2009-07-11 00:04:30",1051500,3.969,38.45,5.512,0.555,22.08,110.3552,25.81,26.79,51.3,0,111.3,13.09,26.65,0.5
"2009-07-11 00:05:00",1051501,4.299,47.41,5.208,0.266,22.26,110.3558,25.81,26.81,51.26,0,111.3,13.09,26.65,9.4
"2009-07-11 00:05:30",1051502,4.047,62.18,7.051,0.446,22.35,110.3536,25.8,26.82,50.44,0,111.3,13.09,26.65,24.2
"2009-07-11 00:06:00",1051503,4.738,67.68,3.91,0.308,22.35,110.3549,25.81,26.81,50.16,0,111.3,13.09,26.65,29.7
"2009-07-11 00:06:30",1051504,4.906,65.56,5.585,0.261,22.33,110.3558,25.81,26.81,50.19,0,111.3,13.09,26.65,27.6
"2009-07-11 00:07:00",1051505,4.699,65.16,3.465,0.33,22.34,110.3551,25.81,26.82,50.39,0,111.3,13.09,26.65,27.2
"2009-07-11 00:07:30",1051506,3.741,68.51,4.267,0.588,22.29,110.3568,25.81,26.83,50.74,0,111.3,13.09,26.65,30.5
"2009-07-11 00:08:00",1051507,3.623,58.23,8.46,0.402,22.27,110.3617,25.82,26.83,50.77,0,111.3,13.09,26.67,20.2
"2009-07-11 00:08:30",1051508,2.497,41.37,8.64,0.326,22.29,110.3617,25.82,26.82,50.62,0,111.3,13.09,26.67,3.4
"2009-07-11 00:09:00",1051509,3.289,64.64,14.74,0.608,22.3,110.3558,25.81,26.81,50.77,0,111.3,13.09,26.65,26.6
"2009-07-11 00:09:30",1051510,4.04,79.24,2.134,0.247,22.35,110.3564,25.81,26.82,50.98,0,111.3,13.09,26.65,41.2
"2009-07-11 00:10:00",1051511,2.848,75.72,3.64,0.484,22.29,110.3552,25.81,26.82,50.88,0,111.3,13.09,26.65,37.7
"2009-07-11 00:10:30",1051512,3.182,79.8,6.91,0.525,22.31,110.3549,25.81,26.81,50.53,0,111.3,13.09,26.65,41.8
"2009-07-11 00:11:00",1051513,3.243,67.25,5.161,0.39,22.26,110.3604,25.82,26.82,50.76,0,111.3,13.09,26.66,29.2
"2009-07-11 00:11:30",1051514,3.172,58.4,4.296,0.492,22.29,110.3652,25.83,26.84,50.82,0,111.3,13.09,26.68,20.4
"2009-07-11 00:12:00",1051515,3.814,67.34,5.828,0.32,22.32,110.3648,25.83,26.82,50.41,0,111.3,13.09,26.67,29.3
"2009-07-11 00:12:30",1051516,4.474,74.11,5.751,0.368,22.37,110.3715,25.85,26.82,50.45,0,111.3,13.09,26.69,36.1
"2009-07-11 00:13:00",1051517,4.34,75.43,1.799,0.246,22.38,110.373,25.85,26.84,50.6,0,111.3,13.09,26.70,37.4
"2009-07-11 00:13:30",1051518,3.723,77.79,7.121,0.406,22.37,110.3777,25.87,26.84,50.6,0,111.3,13.09,26.71,39.8
"2009-07-11 00:14:00",1051519,3.9,85.5,5.96,0.471,22.38,110.3844,25.88,26.86,50.67,0,111.3,13.09,26.72,47.5
"2009-07-11 00:14:30",1051520,4.3,77.78,4.992,0.561,22.38,110.3848,25.88,26.85,50.52,0,111.3,13.09,26.73,39.8
"2009-07-11 00:15:00",1051521,3.61,63.03,5.621,0.225,22.08,110.3871,25.89,26.86,50.88,0,111.3,13.09,26.73,25.0
"2009-07-11 00:15:30",1051522,4.179,64.33,9.32,0.435,22.2,110.3912,25.9,26.87,51.14,0,111.3,13.09,26.74,26.3
"2009-07-11 00:16:00",1051523,4.209,75.27,3.294,0.374,22.39,110.3884,25.89,26.86,50.91,0,111.3,13.09,26.73,37.3
"2009-07-11 00:16:30",1051524,3.69,69.61,3.74,0.444,22.31,110.3908,25.9,26.89,51.01,0,111.3,13.09,26.74,31.6
"2009-07-11 00:17:00",1051525,3.223,71.88,4.189,0.527,22.18,110.3868,25.89,26.87,51.51,0,111.3,13.09,26.73,33.9
"2009-07-11 00:17:30",1051526,3.071,90.8,7.408,0.161,22.35,110.3702,25.85,26.86,51.21,0,111.3,13.08,26.69,52.8
"2009-07-11 00:18:00",1051527,3.577,85.8,4.468,0.23,22.37,110.3716,25.85,26.87,51.13,0,111.3,13.09,26.69,47.8
"2009-07-11 00:18:30",1051528,4.095,77.82,5.361,0.506,22.43,110.3678,25.84,26.85,50.76,0,111.3,13.09,26.68,39.8
"2009-07-11 00:19:00",1051529,4.354,83,2.883,0.334,22.51,110.3692,25.84,26.86,50.66,0,111.3,13.09,26.69,45.0
"2009-07-11 00:19:30",1051530,4.085,83.9,5.714,0.281,22.57,110.3692,25.84,26.86,50.52,0,111.3,13.09,26.69,45.9
"2009-07-11 00:20:00",1051531,3.878,78.28,10.69,0.343,22.63,110.3681,25.84,26.85,50.66,0,111.3,13.09,26.68,40.3
"2009-07-11 00:20:30",1051532,3.092,67.43,16.75,0.545,22.51,110.3633,25.83,26.84,50.6,0,111.3,13.09,26.67,29.4
"2009-07-11 00:21:00",1051533,3.377,56.59,4.858,0.307,22.53,110.3611,25.82,26.84,50.95,0,111.3,13.09,26.66,18.6
"2009-07-11 00:21:30",1051534,4.358,68.51,8.01,0.388,22.51,110.3608,25.82,26.85,51.28,0,111.3,13.09,26.66,30.5
"2009-07-11 00:22:00",1051535,4.755,67.24,8.05,0.347,22.45,110.3611,25.82,26.84,51.51,0,111.3,13.09,26.66,29.2
"2009-07-11 00:22:30",1051536,4.219,68.66,3.508,0.402,22.44,110.3611,25.82,26.82,51.82,0,111.3,13.09,26.66,30.7
"2009-07-11 00:23:00",1051537,3.721,67.53,4.28,0.257,22.38,110.3493,25.79,26.8,51.99,0,111.3,13.09,26.63,29.5
"2009-07-11 00:23:30",1051538,3.58,75.27,5.249,0.301,22.38,110.3291,25.74,26.78,51.54,0,111.3,13.09,26.58,37.3
"2009-07-11 00:24:00",1051539,3.984,74.13,6.452,0.581,22.4,110.3274,25.74,26.76,51.21,0,111.3,13.09,26.58,36.1
"2009-07-11 00:24:30",1051540,4.741,64.62,8.24,0.59,22.39,110.3274,25.74,26.74,51.22,0,111.3,13.09,26.58,26.6
"2009-07-11 00:25:00",1051541,5.666,52.1,6.387,0.248,22.26,110.3277,25.74,26.77,51.94,0,111.3,13.09,26.58,14.1
"2009-07-11 00:25:30",1051542,4.893,62.7,7.254,0.298,22.43,110.3241,25.73,26.74,51.95,0,111.3,13.09,26.57,24.7
"2009-07-11 00:26:00",1051543,4.697,63.03,5.56,0.4,22.4,110.3124,25.7,26.73,51.83,0,111.3,13.09,26.54,25.0
"2009-07-11 00:26:30",1051544,4.052,52.92,3.918,0.29,22.25,110.3059,25.68,26.71,51.71,0,111.3,13.09,26.52,14.9
"2009-07-11 00:27:00",1051545,5.003,52.82,7.136,0.176,22.23,110.2997,25.66,26.72,51.84,0,111.3,13.09,26.51,14.8
"2009-07-11 00:27:30",1051546,4.287,49.98,4.952,0.27,22.29,110.299,25.66,26.7,51.81,0,111.3,13.09,26.50,12.0
"2009-07-11 00:28:00",1051547,4.321,51.97,4.099,0.391,22.22,110.2975,25.66,26.69,52.27,0,111.3,13.1,26.50,14.0
"2009-07-11 00:28:30",1051548,4.825,58.37,5.3,0.318,22.25,110.2974,25.66,26.68,52.36,0,111.3,13.1,26.50,20.4
"2009-07-11 00:29:00",1051549,4.633,70.66,6.134,0.496,22.38,110.2945,25.65,26.66,52.29,0,111.3,13.1,26.49,32.7
"2009-07-11 00:29:30",1051550,4.2,77.02,3.358,0.229,22.5,110.2804,25.62,26.67,51.83,0,111.3,13.1,26.46,39.0
"2009-07-11 00:30:00",1051551,3.582,67.69,4.946,0.238,22.43,110.2757,25.6,26.65,51.6,0,111.3,13.1,26.44,29.7
"2009-07-11 00:30:30",1051552,4.026,47.15,4.78,0.633,22.02,110.2721,25.59,26.64,52.3,0,111.3,13.1,26.43,9.2
"2009-07-11 00:31:00",1051553,4.549,63.9,3.759,0.259,22.37,110.2691,25.59,26.63,52.25,0,111.3,13.1,26.43,25.9
"2009-07-11 00:31:30",1051554,4.783,49.68,5.527,0.425,22.15,110.2694,25.59,26.62,52.45,0,111.3,13.09,26.43,11.7
"2009-07-11 00:32:00",1051555,3.914,40.59,2.67,0.474,22.1,110.268,25.58,26.6,52.82,0,111.3,13.09,26.42,2.6
"2009-07-11 00:32:30",1051556,3.682,49.07,10.83,0.513,22.28,110.2559,25.55,26.61,52.71,0,111.3,13.09,26.39,11.1
"2009-07-11 00:33:00",1051557,3.395,69.4,4.109,0.36,22.28,110.2441,25.52,26.59,52.5,0,111.3,13.09,26.36,31.4
"2009-07-11 00:33:30",1051558,3.925,61.3,3.832,0.254,22.23,110.2413,25.51,26.58,52.68,0,111.3,13.09,26.36,23.3
"2009-07-11 00:34:00",1051559,3.889,60.4,4.651,0.265,22.15,110.236,25.5,26.56,52.83,0,111.3,13.09,26.34,22.4
"2009-07-11 00:34:30",1051560,4.055,60.86,2.359,0.213,22.07,110.2357,25.5,26.56,53.02,0,111.3,13.09,26.34,22.9
"2009-07-11 00:35:00",1051561,4.196,61.96,4.732,0.424,22.16,110.2357,25.5,26.54,53.08,0,111.3,13.09,26.34,24.0
"2009-07-11 00:35:30",1051562,4.412,64.58,6.022,0.369,22.2,110.2337,25.5,26.54,53.15,0,111.3,13.09,26.34,26.6
"2009-07-11 00:36:00",1051563,3.818,47.74,3.361,0.207,21.95,110.218,25.45,26.51,53.15,0,111.3,13.09,26.30,9.7
"2009-07-11 00:36:30",1051564,4.513,53.85,5.409,0.531,22.08,110.2037,25.42,26.51,53.15,0,111.3,13.09,26.26,15.8
"2009-07-11 00:37:00",1051565,4.724,64.69,4.002,0.294,22.27,110.202,25.41,26.5,53.28,0,111.3,13.09,26.25,26.7
"2009-07-11 00:37:30",1051566,5.267,57.44,5.977,0.345,22.26,110.2017,25.41,26.48,53.45,0,111.3,13.09,26.25,19.4
"2009-07-11 00:38:00",1051567,5.074,51.97,4.559,0.329,22.24,110.1905,25.38,26.47,53.39,0,111.3,13.1,26.22,14.0
"2009-07-11 00:38:30",1051568,4.468,60.48,4.257,0.479,22.27,110.1759,25.35,26.46,53.43,0,111.3,13.1,26.19,22.5
"2009-07-11 00:39:00",1051569,4.928,55.44,4.125,0.316,22.16,110.1686,25.33,26.43,53.55,0,111.3,13.1,26.17,17.4
"2009-07-11 00:39:30",1051570,4.806,56.07,4.665,0.187,22.2,110.1683,25.33,26.42,53.62,0,111.3,13.1,26.17,18.1
"2009-07-11 00:40:00",1051571,4.716,66.95,4.051,0.2,22.34,110.1661,25.32,26.42,53.82,0,111.3,13.1,26.16,28.9
"2009-07-11 00:40:30",1051572,4.92,58.89,16.15,0.668,22.09,110.1487,25.28,26.38,53.83,0,111.3,13.1,26.12,20.9
"2009-07-11 00:41:00",1051573,5.362,40.3,2.897,0.179,21.91,110.1361,25.24,26.37,53.41,0,111.3,13.1,26.08,2.3
"2009-07-11 00:41:30",1051574,5.634,45.53,3.33,0.253,22.03,110.1347,25.24,26.36,53.38,0,111.3,13.1,26.08,7.5
"2009-07-11 00:42:00",1051575,5.078,45.55,2.569,0.286,22.02,110.1307,25.23,26.33,53.51,0,111.3,13.1,26.07,7.5
"2009-07-11 00:42:30",1051576,4.172,46.4,4.058,0.534,22.01,110.1108,25.18,26.31,53.58,0,111.3,13.1,26.02,8.4
"2009-07-11 00:43:00",1051577,3.715,58.3,4.415,0.293,22.1,110.1018,25.16,26.28,53.73,0,111.3,13.1,26.00,20.3
"2009-07-11 00:43:30",1051578,4.864,55.09,4.237,0.53,22.04,110.101,25.15,26.27,53.9,0,111.3,13.1,25.99,17.1
"2009-07-11 00:44:00",1051579,5.317,52.59,4.457,0.231,22.1,110.0999,25.15,26.25,54.09,0,111.3,13.1,25.99,14.6
"2009-07-11 00:44:30",1051580,4.863,62.75,4.743,0.227,22.18,110.0853,25.11,26.24,54.35,0,111.3,13.1,25.95,24.8
"2009-07-11 00:45:00",1051581,5.171,67.71,4.855,0.203,22.27,110.076,25.09,26.22,54.56,0,111.3,13.1,25.93,29.7
"2009-07-11 00:45:30",1051582,4.541,63.45,6.175,0.251,22.13,110.0696,25.07,26.22,54.8,0,111.3,13.1,25.91,25.5
"2009-07-11 00:46:00",1051583,4.759,64.89,2.68,0.206,22.22,110.0673,25.07,26.18,54.88,0,111.3,13.1,25.91,26.9
"2009-07-11 00:46:30",1051584,4.929,74.23,2.438,0.343,22.26,110.0676,25.07,26.17,55.02,0,111.3,13.1,25.91,36.2
"2009-07-11 00:47:00",1051585,4.943,61.48,6.096,0.189,22.08,110.0676,25.07,26.16,55.24,0,111.3,13.1,25.91,23.5
"2009-07-11 00:47:30",1051586,5.596,52.32,2.166,0.536,21.97,110.064,25.06,26.16,55.41,0,111.3,13.1,25.90,14.3
"2009-07-11 00:48:00",1051587,5.621,58.28,9.51,0.769,22.19,110.0484,25.02,26.14,55.41,0,111.3,13.1,25.86,20.3
"2009-07-11 00:48:30",1051588,4.262,65.86,3.519,0.268,22.05,110.0419,25,26.14,55.47,0,111.3,13.1,25.84,27.9
"2009-07-11 00:49:00",1051589,4.851,63.13,3.745,0.338,22.12,110.0373,24.99,26.12,55.53,0,111.3,13.1,25.83,25.1
"2009-07-11 00:49:30",1051590,4.972,67.26,1.717,0.157,22.12,110.0389,24.99,26.12,55.49,0,111.3,13.1,25.83,29.3
"2009-07-11 00:50:00",1051591,5.275,62.02,3.668,0.243,22.11,110.0405,25,26.1,55.59,0,111.3,13.1,25.84,24.0
"2009-07-11 00:50:30",1051592,5.759,66.49,3.918,0.48,22.14,110.0448,25.01,26.09,55.7,0,111.3,13.09,25.85,28.5
"2009-07-11 00:51:00",1051593,5.619,66,4.19,0.258,22.13,110.0442,25.01,26.08,55.74,0,111.3,13.09,25.85,28.0
"2009-07-11 00:51:30",1051594,5.448,60.68,2.969,0.236,22.1,110.0392,25,26.05,55.9,0,111.3,13.1,25.83,22.7
"2009-07-11 00:52:00",1051595,5.782,59.28,3.037,0.3,22.11,110.0302,24.97,26.06,55.99,0,111.3,13.09,25.81,21.3
"2009-07-11 00:52:30",1051596,6.005,62.34,5.115,0.537,22.14,110.02,24.95,26.05,56.16,0,111.3,13.09,25.78,24.3
"2009-07-11 00:53:00",1051597,6.014,64.52,2.714,0.271,22.21,110.0173,24.94,26.04,56.06,0,111.3,13.1,25.78,26.5
"2009-07-11 00:53:30",1051598,6.149,70.74,5.178,0.252,22.23,110.0198,24.95,26.03,56.01,0,111.3,13.1,25.78,32.7
"2009-07-11 00:54:00",1051599,5.658,75.62,2.723,0.214,22.18,110.0213,24.95,26,56.04,0,111.3,13.1,25.79,37.6
"2009-07-11 00:54:30",1051600,5.409,71.86,2.628,0.324,22.09,110.0232,24.95,26.01,55.94,0,111.2,13.1,25.79,33.9
"2009-07-11 00:55:00",1051601,5.437,61.09,4.847,0.327,22.08,110.0259,24.96,25.98,56.07,0,111.3,13.1,25.80,23.1
"2009-07-11 00:55:30",1051602,6.093,58.95,3.723,0.305,22.16,110.0248,24.96,25.97,56.16,0,111.3,13.1,25.80,21.0
"2009-07-11 00:56:00",1051603,5.755,65.49,6.183,0.458,22.26,110.0206,24.95,25.98,56.18,0,111.3,13.1,25.79,27.5
"2009-07-11 00:56:30",1051604,5.508,67.85,5.42,0.314,22.24,110.0091,24.92,25.96,56.18,0,111.3,13.1,25.76,29.8
"2009-07-11 00:57:00",1051605,6.086,66.67,4.09,0.278,22.18,109.998,24.89,25.93,56.17,0,111.2,13.1,25.73,28.7
"2009-07-11 00:57:30",1051606,5.523,66.25,2.691,0.34,22.27,109.9931,24.88,25.92,56.21,0,111.2,13.1,25.72,28.2
"2009-07-11 00:58:00",1051607,5.045,63.3,4.24,0.356,22.3,109.9935,24.88,25.89,56.46,0,111.2,13.1,25.72,25.3
"2009-07-11 00:58:30",1051608,5.202,67.86,4.438,0.136,22.12,109.9938,24.88,25.88,56.34,0,111.2,13.1,25.72,29.9
"2009-07-11 00:59:00",1051609,5.029,74.47,2.524,0.172,22.09,109.9927,24.88,25.84,56.4,0,111.2,13.1,25.71,36.5
"2009-07-11 00:59:30",1051610,4.443,77.36,2.612,0.158,22.15,109.9941,24.88,25.84,56.33,0,111.2,13.1,25.72,39.4
"2009-07-11 01:00:00",1051611,4.495,77.81,3.027,0.205,22.16,109.9941,24.88,25.83,56.16,0,111.2,13.1,25.72,39.8
"2009-07-11 01:00:30",1051612,4.814,77.09,3.315,0.206,22.11,109.9947,24.88,25.84,56.25,0,111.2,13.1,25.72,39.1
"2009-07-11 01:01:00",1051613,5.25,74.64,3.289,0.537,22.12,109.995,24.88,25.84,56.39,0,111.2,13.1,25.72,36.6
"2009-07-11 01:01:30",1051614,5.565,69.34,2.23,0.316,22.12,109.9941,24.88,25.85,56.51,0,111.2,13.1,25.72,31.3
"2009-07-11 01:02:00",1051615,5.855,72.02,3.45,0.34,22.27,109.9948,24.88,25.83,56.57,0,111.2,13.1,25.72,34.0
"2009-07-11 01:02:30",1051616,6.043,71.87,3.261,0.499,22.3,109.9931,24.88,25.84,56.77,0,111.2,13.1,25.72,33.9
"2009-07-11 01:03:00",1051617,5.713,66.67,2.723,0.322,22.24,109.9871,24.86,25.85,56.73,0,111.2,13.1,25.70,28.7
"2009-07-11 01:03:30",1051618,5.054,71.31,1.822,0.116,22.2,109.985,24.86,25.82,56.68,0,111.2,13.1,25.69,33.3
"2009-07-11 01:04:00",1051619,4.678,72.72,2.849,0.261,22.17,109.986,24.86,25.82,56.6,0,111.2,13.1,25.70,34.7
"2009-07-11 01:04:30",1051620,4.288,74.65,3.527,0.316,22.08,109.9819,24.85,25.83,56.74,0,111.2,13.1,25.69,36.7
"2009-07-11 01:05:00",1051621,4.005,75.24,4.979,0.292,22.23,109.9845,24.85,25.81,56.28,0,111.2,13.1,25.69,37.2
"2009-07-11 01:05:30",1051622,3.709,76.26,1.945,0.135,22.34,109.9785,24.84,25.84,56.23,0,111.2,13.1,25.68,38.3
"2009-07-11 01:06:00",1051623,3.697,76.98,2.215,0.178,22.3,109.9746,24.83,25.82,56.28,0,111.2,13.1,25.67,39.0
"2009-07-11 01:06:30",1051624,3.712,73.09,1.126,0.141,22.34,109.973,24.83,25.82,56.33,0,111.2,13.1,25.66,35.1
"2009-07-11 01:07:00",1051625,3.811,68.14,2.695,0.211,22.39,109.9694,24.82,25.81,56.55,0,111.2,13.1,25.65,30.1
"2009-07-11 01:07:30",1051626,3.957,66.45,2.498,0.134,22.41,109.9697,24.82,25.83,56.62,0,111.2,13.1,25.66,28.4
"2009-07-11 01:08:00",1051627,4.033,70.12,2.593,0.207,22.46,109.9697,24.82,25.82,56.71,0,111.2,13.1,25.66,32.1
"2009-07-11 01:08:30",1051628,4.871,63.21,1.926,0.178,22.4,109.9697,24.82,25.82,56.92,0,111.2,13.1,25.66,25.2
"2009-07-11 01:09:00",1051629,4.619,67.81,2.218,0.125,22.42,109.9691,24.82,25.8,57.01,0,111.2,13.1,25.65,29.8
"2009-07-11 01:09:30",1051630,4.291,74.55,2.43,0.099,22.55,109.9554,24.78,25.8,57.04,0,111.2,13.1,25.62,36.6
"2009-07-11 01:10:00",1051631,3.777,73.98,4.83,0.23,22.58,109.9439,24.75,25.79,57.13,0,111.2,13.1,25.59,36.0
"2009-07-11 01:10:30",1051632,4.203,62.7,2.816,0.387,22.52,109.936,24.73,25.8,57.14,0,111.2,13.1,25.57,24.7
"2009-07-11 01:11:00",1051633,3.847,60.28,4.556,0.236,22.52,109.936,24.73,25.78,57.18,0,111.2,13.11,25.57,22.3
"2009-07-11 01:11:30",1051634,4.312,48.81,3.576,0.364,22.52,109.9343,24.73,25.77,57.25,0,111.2,13.11,25.56,10.8
"2009-07-11 01:12:00",1051635,4.743,46.03,1.505,0.455,22.42,109.9119,24.67,25.75,57.42,0,111.2,13.11,25.51,8.0
"2009-07-11 01:12:30",1051636,5.328,55.52,5.995,0.322,22.51,109.9026,24.64,25.73,57.57,0,111.2,13.11,25.48,17.5
"2009-07-11 01:13:00",1051637,4.62,47.96,3.306,0.338,22.41,109.902,24.64,25.71,57.64,0,111.2,13.11,25.48,10.0
"2009-07-11 01:13:30",1051638,4.789,52.17,2.36,0.157,22.35,109.881,24.59,25.69,57.74,0,111.2,13.11,25.43,14.2
"2009-07-11 01:14:00",1051639,5.178,52.5,3.616,0.287,22.48,109.8686,24.56,25.67,57.84,0,111.2,13.11,25.39,14.5
"2009-07-11 01:14:30",1051640,4.693,58.01,3.873,0.236,22.45,109.8583,24.53,25.65,57.98,0,111.2,13.11,25.37,20.0
"2009-07-11 01:15:00",1051641,4.743,58.56,1.694,0.098,22.39,109.8378,24.48,25.63,57.91,0,111.2,13.12,25.32,20.6
"2009-07-11 01:15:30",1051642,4.615,57.16,2.056,0.17,22.44,109.835,24.47,25.6,58.12,0,111.2,13.12,25.31,19.2
"2009-07-11 01:16:00",1051643,4.624,57.41,1.807,0.142,22.3,109.8207,24.43,25.56,58.16,0,111.2,13.12,25.27,19.4
"2009-07-11 01:16:30",1051644,4.321,56.05,2.413,0.164,22.24,109.8057,24.4,25.53,58.19,0,111.2,13.12,25.23,18.0
"2009-07-11 01:17:00",1051645,4.786,56.11,1.844,0.19,22.22,109.8035,24.39,25.52,58.23,0,111.2,13.12,25.23,18.1
"2009-07-11 01:17:30",1051646,4.695,52.63,1.537,0.108,22.11,109.796,24.37,25.49,58.26,0,111.2,13.12,25.21,14.6
"2009-07-11 01:18:00",1051647,4.707,56.11,2.341,0.279,22.08,109.7804,24.33,25.47,58.34,0,111.2,13.12,25.17,18.1
"2009-07-11 01:18:30",1051648,4.617,53.16,1.571,0.19,21.94,109.7833,24.34,25.45,58.44,0,111.2,13.12,25.17,15.2
"2009-07-11 01:19:00",1051649,4.383,57.62,2.644,0.271,22.03,109.7819,24.33,25.43,58.6,0,111.2,13.12,25.17,19.6
"2009-07-11 01:19:30",1051650,4.591,58.43,1.558,0.116,22.01,109.7667,24.3,25.4,58.86,0,111.2,13.12,25.13,20.4
"2009-07-11 01:20:00",1051651,4.411,57.72,2.592,0.19,21.99,109.7592,24.28,25.39,58.96,0,111.2,13.12,25.11,19.7
"2009-07-11 01:20:30",1051652,3.989,61.4,1.665,0.064,22,109.7613,24.28,25.38,59.1,0,111.2,13.12,25.12,23.4
"2009-07-11 01:21:00",1051653,3.852,60.59,2.339,0.27,21.99,109.7616,24.28,25.36,59.19,0,111.2,13.12,25.12,22.6
"2009-07-11 01:21:30",1051654,3.927,67.58,3.495,0.251,22.14,109.7602,24.28,25.32,59.19,0,111.2,13.12,25.12,29.6
"2009-07-11 01:22:00",1051655,4.099,61.62,2.408,0.165,21.95,109.7532,24.26,25.32,59.22,0,111.2,13.12,25.10,23.6
"2009-07-11 01:22:30",1051656,4.059,56.85,1.255,0.121,21.95,109.7389,24.22,25.32,59.25,0,111.2,13.12,25.06,18.8
"2009-07-11 01:23:00",1051657,4.243,58.84,2.718,0.11,21.93,109.7359,24.22,25.31,59.26,0,111.2,13.12,25.05,20.8
"2009-07-11 01:23:30",1051658,4.137,54.22,1.384,0.136,21.88,109.7312,24.2,25.3,59.14,0,111.2,13.12,25.04,16.2
"2009-07-11 01:24:00",1051659,4.248,51.52,1.92,0.144,21.87,109.7298,24.2,25.28,59.1,0,111.2,13.12,25.04,13.5
"2009-07-11 01:24:30",1051660,4.292,51.65,1.61,0.101,21.91,109.7307,24.2,25.27,59.03,0,111.2,13.12,25.04,13.7
"2009-07-11 01:25:00",1051661,4.111,54.6,1.112,0.059,21.91,109.7317,24.21,25.25,59.09,0,111.2,13.12,25.04,16.6
"2009-07-11 01:25:30",1051662,4.233,57.33,1.242,0.074,21.95,109.7197,24.17,25.26,59.17,0,111.1,13.11,25.01,19.3
"2009-07-11 01:26:00",1051663,4.326,57.88,0.881,0.04,21.92,109.7108,24.15,25.23,58.97,0,111.1,13.12,24.99,19.9
"2009-07-11 01:26:30",1051664,4.307,55.7,0.67,0.077,21.97,109.707,24.14,25.23,59.19,0,111.1,13.12,24.98,17.7
"2009-07-11 01:27:00",1051665,4.359,56.27,0.885,0.068,22,109.7038,24.13,25.21,59.32,0,111.1,13.12,24.97,18.3
"2009-07-11 01:27:30",1051666,4.495,58.56,1.738,0.071,22.02,109.7035,24.13,25.2,59.36,0,111.1,13.12,24.97,20.6
"2009-07-11 01:28:00",1051667,4.416,64.59,1.806,0.083,22.16,109.7035,24.13,25.19,59.01,0,111.1,13.12,24.97,26.6
"2009-07-11 01:28:30",1051668,4.651,66.11,1.162,0.1,22.17,109.6987,24.12,25.17,58.89,0,111.1,13.12,24.96,28.1
"2009-07-11 01:29:00",1051669,4.542,69.09,0.557,0.03,22.2,109.6827,24.08,25.17,58.94,0,111.1,13.12,24.92,31.1
"2009-07-11 01:29:30",1051670,4.562,70.27,0.836,0.066,22.23,109.6763,24.06,25.16,59.08,0,111.1,13.12,24.90,32.3
"2009-07-11 01:30:00",1051671,4.442,71.2,0.942,0.088,22.27,109.6709,24.05,25.14,59.33,0,111.1,13.12,24.88,33.2
"2009-07-11 01:30:30",1051672,4.53,71.35,0.988,0.067,22.18,109.6698,24.05,25.14,59.47,0,111.1,13.12,24.88,33.3
"2009-07-11 01:31:00",1051673,4.87,68.99,0.936,0.11,22.06,109.6698,24.05,25.12,59.55,0,111.2,13.12,24.88,31.0
"2009-07-11 01:31:30",1051674,4.985,69.54,0.559,0.053,22.11,109.6695,24.05,25.11,59.91,0,111.1,13.12,24.88,31.5
"2009-07-11 01:32:00",1051675,4.841,68.86,1.014,0.046,22.11,109.6633,24.03,25.1,60.23,0,111.2,13.12,24.87,30.9
"2009-07-11 01:32:30",1051676,4.796,66.73,1.189,0.033,22.1,109.6482,23.99,25.08,60.35,0,111.1,13.12,24.83,28.7
"2009-07-11 01:33:00",1051677,4.816,65.43,0.572,0.033,22.08,109.6412,23.97,25.08,60.35,0,111.1,13.12,24.81,27.4
"2009-07-11 01:33:30",1051678,4.808,62.75,1.075,0.043,22.06,109.6361,23.96,25.08,60.38,0,111.1,13.13,24.80,24.8
"2009-07-11 01:34:00",1051679,4.715,62.93,0.556,0.034,22.14,109.6361,23.96,25.04,60.41,0,111.1,13.13,24.80,24.9
"2009-07-11 01:34:30",1051680,4.622,62.63,0.359,0.04,22.15,109.6285,23.94,25.05,60.54,0,111.1,13.13,24.78,24.6
"2009-07-11 01:35:00",1051681,4.662,62.64,0.339,0.029,22.1,109.6156,23.91,25.03,60.67,0,111.1,13.13,24.74,24.6
"2009-07-11 01:35:30",1051682,4.67,60.5,0.564,0.031,22.02,109.6069,23.88,25.01,60.73,0,111.1,13.13,24.72,22.5
"2009-07-11 01:36:00",1051683,4.674,58.54,0.811,0.05,22.02,109.6024,23.87,25,60.74,0,111.1,13.13,24.71,20.5
"2009-07-11 01:36:30",1051684,4.722,58.15,0.577,0.035,22.02,109.6024,23.87,24.98,60.75,0,111.1,13.13,24.71,20.2
"2009-07-11 01:37:00",1051685,4.701,56.66,0.576,0.072,22.04,109.5979,23.86,24.97,60.75,0,111.1,13.13,24.70,18.7
"2009-07-11 01:37:30",1051686,4.795,56.59,0.612,0.075,22.02,109.5775,23.81,24.95,60.72,0,111.1,13.13,24.64,18.6
"2009-07-11 01:38:00",1051687,4.801,58.18,1.009,0.047,22.01,109.5704,23.79,24.94,60.72,0,111.1,13.13,24.63,20.2
"2009-07-11 01:38:30",1051688,5.024,58.22,1.259,0.145,22,109.5703,23.79,24.92,60.74,0,111.1,13.13,24.63,20.2
"2009-07-11 01:39:00",1051689,5.135,57.16,0.91,0.061,21.94,109.5728,23.8,24.9,60.7,0,111.1,13.13,24.63,19.2
"2009-07-11 01:39:30",1051690,5.124,57.3,0.758,0.089,21.95,109.5617,23.77,24.9,60.73,0,111.1,13.13,24.60,19.3
"2009-07-11 01:40:00",1051691,5.201,56.57,1.136,0.075,21.97,109.5508,23.74,24.87,60.84,0,111.1,13.13,24.58,18.6
"2009-07-11 01:40:30",1051692,5.269,54.87,0.611,0.077,21.94,109.5526,23.75,24.86,60.93,0,111.1,13.13,24.58,16.9
"2009-07-11 01:41:00",1051693,5.265,57.93,1.204,0.063,21.97,109.5553,23.75,24.84,61.07,0,111.1,13.13,24.59,19.9
"2009-07-11 01:41:30",1051694,5.346,58.03,1.143,0.088,21.93,109.5402,23.71,24.83,61.17,0,111.1,13.13,24.55,20.0
"2009-07-11 01:42:00",1051695,5.328,56.07,1.279,0.147,21.91,109.5302,23.69,24.8,61.23,0,111.1,13.13,24.52,18.1
"2009-07-11 01:42:30",1051696,5.565,55.6,0.858,0.153,21.87,109.5284,23.68,24.78,61.25,0,111.1,13.13,24.52,17.6
"2009-07-11 01:43:00",1051697,5.612,55.83,1.856,0.099,21.87,109.5276,23.68,24.76,61.15,0,111.1,13.13,24.52,17.8
"2009-07-11 01:43:30",1051698,5.428,54.5,1.921,0.084,21.89,109.5189,23.66,24.74,60.94,0,111.1,13.13,24.49,16.5
"2009-07-11 01:44:00",1051699,5.222,55.56,2.515,0.156,21.95,109.5018,23.61,24.71,60.94,0,111.1,13.13,24.45,17.6
"2009-07-11 01:44:30",1051700,5.614,54.25,1.377,0.131,21.93,109.4953,23.6,24.7,60.99,0,111.1,13.13,24.43,16.2
"2009-07-11 01:45:00",1051701,5.44,54.12,2.23,0.164,21.97,109.4956,23.6,24.68,61,0,111.1,13.13,24.43,16.1
"2009-07-11 01:45:30",1051702,5.467,56.13,0.659,0.06,22.06,109.4853,23.57,24.66,61.26,0,111.1,13.13,24.41,18.1
"2009-07-11 01:46:00",1051703,5.428,59.4,1.388,0.077,22.18,109.4702,23.53,24.65,61.38,0,111.1,13.13,24.37,21.4
"2009-07-11 01:46:30",1051704,5.286,57,1.916,0.163,22.11,109.4643,23.52,24.62,61.35,0,111.1,13.14,24.35,19.0
"2009-07-11 01:47:00",1051705,5.314,55.87,1.502,0.142,22.15,109.4659,23.52,24.61,61.42,0,111.1,13.14,24.36,17.9
"2009-07-11 01:47:30",1051706,5.26,56.89,0.955,0.067,22.21,109.4675,23.53,24.6,61.46,0,111.1,13.14,24.36,18.9
"2009-07-11 01:48:00",1051707,5.384,54.03,1.165,0.089,22.1,109.461,23.51,24.58,61.49,0,111.1,13.14,24.34,16.0